{"data":{"norad_id":58124,"intl_designator":"2023-162G","name":"STARLINK-30754","alt_names":[],"object_type":"PAYLOAD","status":"ACTIVE","operator":null,"country":"US","launch_date":"2023-10-22","launch_site_code":"AFETR","launch_vehicle":null,"mission":null,"orbit_class":"UNKNOWN","rcs_meters":null,"size_class":null,"mass_kg":null,"dimensions":null,"purposes":["comms"],"wikipedia_slug":null,"has_3d_model":false,"image_url":null,"decayed_at":null,"tle_current":{"epoch":"2026-05-25T00:48:26.873568Z","epoch_age_seconds":68815,"freshness":"FRESH","line1":"1 58124U 23162G   26145.03364437 -.00000156  00000+0  38484-5 0  9996","line2":"2 58124  43.0032  61.2656 0001228 262.3656  97.7056 15.27588008138193","mean_motion":15.27588008,"eccentricity":0.0001228,"inclination_deg":43.0032,"raan_deg":61.2656,"arg_perigee_deg":262.3656,"mean_anomaly_deg":97.7056,"bstar":3.8484e-6,"rev_number":13819,"period_min":94.266254543679,"perigee_km":482.18256660354,"apogee_km":483.86766801955,"semimajor_km":6861.1621173115,"source":"CELESTRAK","updated_at":"2026-05-25T13:38:18.531832Z"}}}